Shinmichimaru — JM6603 — position and weather

sailwx.info

Track history (hours):
 
Tides and Currents Weather Stations Pressure Air Temp Water Temp Dewpoint Dewpoint Depression Visibility Wind Speed Wind Dir Waves Ship Positions

Shinmichimaru

Last reported at 2017-Oct-19 23:30 UTC. Time now 2017-Oct-19 23:34 UTC.
Position N 35°18' E 139°44'.

Length 105 m; draft 5 m.

Type: Tanker. MMSI: 432356000.

Date/timePositionNaut miles runAvg speedWind from/ knotsBaromVisibWave heightAir tempDewpointWater temp
2017-Oct-19 23:30N 35°18' E 139°44'611.0
2017-Oct-19 23:00N 35°13' E 139°47'612.1
2017-Oct-19 22:30N 35°07' E 139°45'612.4
2017-Oct-19 22:00N 35°01' E 139°43'610.2
2017-Oct-19 21:24N 34°55' E 139°45'3312.8
2017-Oct-19 18:49N 35°04' E 140°24'  
2017-Oct-16 10:04N 34°55' E 140°05'1 9.6
2017-Oct-16 10:00N 34°54' E 140°04'1110.1
2017-Oct-16 08:57N 34°51' E 139°52'510.7
2017-Oct-16 08:30N 34°53' E 139°46'714.8
2017-Oct-16 08:00N 34°60' E 139°43'713.8
2017-Oct-16 07:30N 35°07' E 139°44'713.9
2017-Oct-16 07:00N 35°13' E 139°46'612.9
2017-Oct-16 06:30N 35°19' E 139°43'612.8
2017-Oct-16 06:00N 35°26' E 139°44'510.4
2017-Oct-16 05:30N 35°30' E 139°47'1 2.1
2017-Oct-16 05:00N 35°30' E 139°45'0 0.0
2017-Oct-16 04:30N 35°30' E 139°45'0 0.0
2017-Oct-16 04:00N 35°30' E 139°45'0 0.0
2017-Oct-16 03:30N 35°30' E 139°45'0 0.1
2017-Oct-16 03:00N 35°30' E 139°45'0 0.1
2017-Oct-16 02:30N 35°30' E 139°45'0 0.0
2017-Oct-16 02:00N 35°30' E 139°45'0 0.0
2017-Oct-16 01:30N 35°30' E 139°45'0 0.0
2017-Oct-16 01:00N 35°30' E 139°45'0 0.0
2017-Oct-16 00:30N 35°30' E 139°45'0 0.2
2017-Oct-16 00:00N 35°30' E 139°45'2 3.6
2017-Oct-15 23:30N 35°29' E 139°43'3 6.4
2017-Oct-15 23:00N 35°26' E 139°43'3 5.2
2017-Oct-15 22:30N 35°24' E 139°44'0 0.0
2017-Oct-15 22:00N 35°24' E 139°44'0 0.0
2017-Oct-15 21:30N 35°24' E 139°44'0 0.0
2017-Oct-15 21:00N 35°24' E 139°44'0 0.0
2017-Oct-15 20:30N 35°24' E 139°44'0 0.0
2017-Oct-15 20:00N 35°24' E 139°44'0 0.0
2017-Oct-15 19:30N 35°24' E 139°44'0 0.0
2017-Oct-15 19:00N 35°24' E 139°44'0 0.0
2017-Oct-15 18:30N 35°24' E 139°44'0 0.0
2017-Oct-15 18:00N 35°24' E 139°44'0 0.0
2017-Oct-15 17:30N 35°24' E 139°44'0 0.0
2017-Oct-15 17:00N 35°24' E 139°44'0 0.1
2017-Oct-15 16:30N 35°24' E 139°44'0 0.0
2017-Oct-15 16:00N 35°24' E 139°44'0 0.1
2017-Oct-15 15:30N 35°24' E 139°44'0 0.0
2017-Oct-15 15:00N 35°24' E 139°44'0 0.0
2017-Oct-15 14:00N 35°24' E 139°44'0 0.0
2017-Oct-15 13:30N 35°24' E 139°44'0 0.0
2017-Oct-15 13:00N 35°24' E 139°44'0 0.0
2017-Oct-15 12:30N 35°24' E 139°44'0 0.1
2017-Oct-15 12:00N 35°24' E 139°44'0 0.1
2017-Oct-15 11:30N 35°24' E 139°44'0 0.1
2017-Oct-15 11:00N 35°24' E 139°44'0 0.0
2017-Oct-15 10:27N 35°24' E 139°44'0 0.0
2017-Oct-15 10:00N 35°24' E 139°44'0 0.0
2017-Oct-15 09:30N 35°24' E 139°44'0 0.0
2017-Oct-15 09:00N 35°24' E 139°44'0 0.0
2017-Oct-15 08:30N 35°24' E 139°44'0 0.0
2017-Oct-15 08:00N 35°24' E 139°44'0 0.0
2017-Oct-15 07:30N 35°24' E 139°44'0 0.2
2017-Oct-15 07:00N 35°24' E 139°44'5 9.9
2017-Oct-15 06:30N 35°19' E 139°44'612.4
2017-Oct-15 06:00N 35°13' E 139°47'612.9
2017-Oct-15 05:30N 35°07' E 139°45'713.4
2017-Oct-15 05:00N 35°02' E 139°40'713.6
2017-Oct-15 04:30N 34°58' E 139°33'  
2017-Oct-12 20:39N 34°53' E 139°26'110.0
2017-Oct-12 20:30N 34°55' E 139°28'611.2
2017-Oct-12 20:00N 34°58' E 139°32'713.1
2017-Oct-12 19:30N 35°03' E 139°38'714.1
2017-Oct-12 19:00N 35°08' E 139°44'713.8
2017-Oct-12 18:31N 35°15' E 139°46'713.1
2017-Oct-12 18:00N 35°21' E 139°42'612.1
2017-Oct-12 17:31N 35°26' E 139°46'713.7
2017-Oct-12 17:00N 35°30' E 139°53'612.1
2017-Oct-12 16:30N 35°29' E 140°00'1 0.1
2017-Oct-12 06:02N 35°29' E 140°01'0 0.4
2017-Oct-12 05:58N 35°29' E 140°01'3 1.3
2017-Oct-12 03:48N 35°30' E 139°58'0 0.0
2017-Oct-12 03:30N 35°30' E 139°58'0 0.0
2017-Oct-12 02:39N 35°30' E 139°58'8 1.7
2017-Oct-11 21:57N 35°26' E 139°49'613.1
2017-Oct-11 21:30N 35°21' E 139°45'511.2
2017-Oct-11 21:00N 35°16' E 139°46'612.7
2017-Oct-11 20:30N 35°10' E 139°46'713.9
2017-Oct-11 20:01N 35°03' E 139°44'812.0
2017-Oct-11 19:18N 34°55' E 139°46'411.6
2017-Oct-11 18:57N 34°51' E 139°48'  
Track history (hours):
 
Tides and Currents Weather Stations Pressure Air Temp Water Temp Dewpoint Dewpoint Depression Visibility Wind Speed Wind Dir Waves Ship Positions

Shinmichimaru

Last reported at 2017-Oct-19 23:30 UTC. Time now 2017-Oct-19 23:34 UTC.
Position N 35°18' E 139°44'.

Length 105 m; draft 5 m.

Type: Tanker. MMSI: 432356000.

Date/timePositionNaut miles runAvg speedWind from/ knotsBaromVisibWave heightAir tempDewpointWater temp
2017-Oct-19 23:30N 35°18' E 139°44'611.0
2017-Oct-19 23:00N 35°13' E 139°47'612.1
2017-Oct-19 22:30N 35°07' E 139°45'612.4
2017-Oct-19 22:00N 35°01' E 139°43'610.2
2017-Oct-19 21:24N 34°55' E 139°45'3312.8
2017-Oct-19 18:49N 35°04' E 140°24'  
2017-Oct-16 10:04N 34°55' E 140°05'1 9.6
2017-Oct-16 10:00N 34°54' E 140°04'1110.1
2017-Oct-16 08:57N 34°51' E 139°52'510.7
2017-Oct-16 08:30N 34°53' E 139°46'714.8
2017-Oct-16 08:00N 34°60' E 139°43'713.8
2017-Oct-16 07:30N 35°07' E 139°44'713.9
2017-Oct-16 07:00N 35°13' E 139°46'612.9
2017-Oct-16 06:30N 35°19' E 139°43'612.8
2017-Oct-16 06:00N 35°26' E 139°44'510.4
2017-Oct-16 05:30N 35°30' E 139°47'1 2.1
2017-Oct-16 05:00N 35°30' E 139°45'0 0.0
2017-Oct-16 04:30N 35°30' E 139°45'0 0.0
2017-Oct-16 04:00N 35°30' E 139°45'0 0.0
2017-Oct-16 03:30N 35°30' E 139°45'0 0.1
2017-Oct-16 03:00N 35°30' E 139°45'0 0.1
2017-Oct-16 02:30N 35°30' E 139°45'0 0.0
2017-Oct-16 02:00N 35°30' E 139°45'0 0.0
2017-Oct-16 01:30N 35°30' E 139°45'0 0.0
2017-Oct-16 01:00N 35°30' E 139°45'0 0.0
2017-Oct-16 00:30N 35°30' E 139°45'0 0.2
2017-Oct-16 00:00N 35°30' E 139°45'2 3.6
2017-Oct-15 23:30N 35°29' E 139°43'3 6.4
2017-Oct-15 23:00N 35°26' E 139°43'3 5.2
2017-Oct-15 22:30N 35°24' E 139°44'0 0.0
2017-Oct-15 22:00N 35°24' E 139°44'0 0.0
2017-Oct-15 21:30N 35°24' E 139°44'0 0.0
2017-Oct-15 21:00N 35°24' E 139°44'0 0.0
2017-Oct-15 20:30N 35°24' E 139°44'0 0.0
2017-Oct-15 20:00N 35°24' E 139°44'0 0.0
2017-Oct-15 19:30N 35°24' E 139°44'0 0.0
2017-Oct-15 19:00N 35°24' E 139°44'0 0.0
2017-Oct-15 18:30N 35°24' E 139°44'0 0.0
2017-Oct-15 18:00N 35°24' E 139°44'0 0.0
2017-Oct-15 17:30N 35°24' E 139°44'0 0.0
2017-Oct-15 17:00N 35°24' E 139°44'0 0.1
2017-Oct-15 16:30N 35°24' E 139°44'0 0.0
2017-Oct-15 16:00N 35°24' E 139°44'0 0.1
2017-Oct-15 15:30N 35°24' E 139°44'0 0.0
2017-Oct-15 15:00N 35°24' E 139°44'0 0.0
2017-Oct-15 14:00N 35°24' E 139°44'0 0.0
2017-Oct-15 13:30N 35°24' E 139°44'0 0.0
2017-Oct-15 13:00N 35°24' E 139°44'0 0.0
2017-Oct-15 12:30N 35°24' E 139°44'0 0.1
2017-Oct-15 12:00N 35°24' E 139°44'0 0.1
2017-Oct-15 11:30N 35°24' E 139°44'0 0.1
2017-Oct-15 11:00N 35°24' E 139°44'0 0.0
2017-Oct-15 10:27N 35°24' E 139°44'0 0.0
2017-Oct-15 10:00N 35°24' E 139°44'0 0.0
2017-Oct-15 09:30N 35°24' E 139°44'0 0.0
2017-Oct-15 09:00N 35°24' E 139°44'0 0.0
2017-Oct-15 08:30N 35°24' E 139°44'0 0.0
2017-Oct-15 08:00N 35°24' E 139°44'0 0.0
2017-Oct-15 07:30N 35°24' E 139°44'0 0.2
2017-Oct-15 07:00N 35°24' E 139°44'5 9.9
2017-Oct-15 06:30N 35°19' E 139°44'612.4
2017-Oct-15 06:00N 35°13' E 139°47'612.9
2017-Oct-15 05:30N 35°07' E 139°45'713.4
2017-Oct-15 05:00N 35°02' E 139°40'713.6
2017-Oct-15 04:30N 34°58' E 139°33'  
2017-Oct-12 20:39N 34°53' E 139°26'110.0
2017-Oct-12 20:30N 34°55' E 139°28'611.2
2017-Oct-12 20:00N 34°58' E 139°32'713.1
2017-Oct-12 19:30N 35°03' E 139°38'714.1
2017-Oct-12 19:00N 35°08' E 139°44'713.8
2017-Oct-12 18:31N 35°15' E 139°46'713.1
2017-Oct-12 18:00N 35°21' E 139°42'612.1
2017-Oct-12 17:31N 35°26' E 139°46'713.7
2017-Oct-12 17:00N 35°30' E 139°53'612.1
2017-Oct-12 16:30N 35°29' E 140°00'1 0.1
2017-Oct-12 06:02N 35°29' E 140°01'0 0.4
2017-Oct-12 05:58N 35°29' E 140°01'3 1.3
2017-Oct-12 03:48N 35°30' E 139°58'0 0.0
2017-Oct-12 03:30N 35°30' E 139°58'0 0.0
2017-Oct-12 02:39N 35°30' E 139°58'8 1.7
2017-Oct-11 21:57N 35°26' E 139°49'613.1
2017-Oct-11 21:30N 35°21' E 139°45'511.2
2017-Oct-11 21:00N 35°16' E 139°46'612.7
2017-Oct-11 20:30N 35°10' E 139°46'713.9
2017-Oct-11 20:01N 35°03' E 139°44'812.0
2017-Oct-11 19:18N 34°55' E 139°46'411.6
2017-Oct-11 18:57N 34°51' E 139°48'  

Dump ship's entire track history